User: anonymous   Login
Location: *
(44.3683°N, 6.6958°E)
Time: 12:47:35
(UTC+00:00)
Language:

Envisat - Orbit

View from above orbital plane
View from above orbital plane
View from above satellite
View from above satellite

Ground track
Ground track

The orbit data is extracted from the following two-line orbital elements,

1 27386U 02009A   19348.07512123  .00000008  00000-0  15938-4 0  9991
2 27386  98.1409 359.8965 0001328  90.0766 300.3185 14.37965767931835
Epoch (UTC): 14 December 2019 01:48:10
Eccentricity: 0.0001328
inclination: 98.1409°
perigee height: 764 km
apogee height: 766 km
right ascension of ascending node: 359.8965°
argument of perigee: 90.0766°
revolutions per day: 14.37965767
mean anomaly at epoch: 300.3185°
orbit number at epoch: 93183

The dashed part of the orbit path shows where the satellite is in the earth's shadow,  

DLR